La Porte, IN

8:30 AM CDT on August 22, 2017 (GMT -0500)
La Porte Municipal

Weather History for KPPO - July, 2013

Change the Weather History Date:

Monday, July 8, 2013

  Actual Average (KSBN) Record (KSBN)
Temperature  
Mean Temperature 74 °F -  
Max Temperature 82 °F 85 °F 106 °F (1936)
Min Temperature 68 °F 64 °F 47 °F (1984)
Cooling Degree Days 10    
Growing Degree Days 24 (Base 50)    
Moisture  
Dew Point 70 °F    
Average Humidity 86    
Maximum Humidity 98    
Minimum Humidity 70    
Precipitation  
Precipitation 0.29 in - - ()
Sea Level Pressure  
Sea Level Pressure 30.03 in    
Wind  
Wind Speed 7 mph (SW)    
Max Wind Speed 17 mph    
Max Gust Speed 23 mph    
Visibility 9 miles    
Events Rain , Thunderstorm    
Averages and records for this station are not official NWS values.
T = Trace of Precipitation, MM = Missing Value Source: NWS Daily Summary

Daily Weather History Graph

Daily Weather History Graph

Search for Another Location

Airport or City:

Trip Planner

Search our weather history database for the weather conditions in past years. The results will help you decide how hot, cold, wet, or windy it might be!

Date:

Astronomy

Jul. 08, 2013 Rise Set
Actual Time 5:20 AM CDT 8:22 PM CDT
Civil Twilight 4:47 AM CDT 8:56 PM CDT
Nautical Twilight 4:04 AM CDT 9:38 PM CDT
Astronomical Twilight 3:14 AM CDT 10:28 PM CDT
Moon 5:50 AM CDT (7/8) 8:23 PM CDT (7/8)
Length of Visible Light 16h 08m
Length of Day
15h 01m
New Moon, 0% of the Moon is Illuminated
Jul 8
New Moon
Jul 15
First Quarter
Jul 22
Full
Jul 29
Last Quarter
Aug 6
New

Hourly Weather History & Observations

Time (CDT) Temp. Heat Index Dew Point Humidity Pressure Visibility Wind Dir Wind Speed Gust Speed Precip Events Conditions
12:15 AM 73.8 °F - 70.0 °F 88% 30.04 in 10.0 mi SSW 5.8 mph - N/A   Clear
12:35 AM 73.4 °F - 69.8 °F 88% 30.04 in 10.0 mi SSW 5.8 mph - N/A   Clear
12:55 AM 73.4 °F - 69.8 °F 88% 30.04 in 10.0 mi SSW 5.8 mph - N/A   Clear
1:15 AM 72.9 °F - 69.8 °F 90% 30.03 in 10.0 mi SW 8.1 mph - N/A   Clear
1:35 AM 72.9 °F - 69.8 °F 90% 30.03 in 10.0 mi SW 6.9 mph - N/A   Clear
1:55 AM 73.0 °F - 69.4 °F 88% 30.03 in 10.0 mi WSW 8.1 mph - N/A   Clear
2:15 AM 72.9 °F - 69.3 °F 88% 30.03 in 10.0 mi WSW 6.9 mph - N/A   Clear
2:35 AM 72.5 °F - 69.3 °F 90% 30.04 in 10.0 mi WSW 8.1 mph - N/A   Clear
2:55 AM 72.1 °F - 69.3 °F 91% 30.03 in 7.0 mi WSW 6.9 mph - N/A   Clear
3:15 AM 71.6 °F - 69.4 °F 93% 30.03 in 7.0 mi SW 5.8 mph - N/A   Clear
3:35 AM 71.2 °F - 69.3 °F 93% 30.03 in 7.0 mi SSW 3.5 mph - N/A   Clear
3:55 AM 71.1 °F - 69.3 °F 94% 30.02 in 7.0 mi SSW 3.5 mph - N/A   Clear
4:15 AM 70.7 °F - 69.1 °F 95% 30.02 in 7.0 mi South 4.6 mph - N/A   Clear
4:35 AM 70.0 °F - 68.9 °F 96% 30.03 in 5.0 mi Calm Calm - N/A   Clear
4:55 AM 70.0 °F - 69.3 °F 98% 30.02 in 5.0 mi SW 4.6 mph - N/A   Clear
5:15 AM 70.2 °F - 68.9 °F 96% 30.02 in 7.0 mi SSW 5.8 mph - N/A   Clear
5:55 AM 70.2 °F - 68.9 °F 96% 30.03 in 7.0 mi SW 6.9 mph - N/A   Clear
6:15 AM 71.1 °F - 68.9 °F 93% 30.03 in 7.0 mi SW 6.9 mph - N/A   Clear
6:35 AM 71.6 °F - 68.9 °F 91% 30.03 in 7.0 mi SW 6.9 mph - N/A   Clear
6:55 AM 72.5 °F - 68.9 °F 88% 30.04 in 7.0 mi SW 9.2 mph - N/A   Clear
7:15 AM 72.7 °F - 69.1 °F 88% 30.04 in 10.0 mi SW 9.2 mph - N/A   Clear
7:35 AM 72.9 °F - 69.1 °F 88% 30.04 in 10.0 mi SW 6.9 mph - N/A   Scattered Clouds
7:55 AM 73.6 °F - 69.3 °F 86% 30.05 in 10.0 mi WSW 8.1 mph - N/A   Clear
8:15 AM 73.9 °F - 69.8 °F 87% 30.05 in 10.0 mi SW 6.9 mph - N/A   Clear
8:35 AM 74.3 °F - 69.3 °F 84% 30.05 in 10.0 mi SW 6.9 mph - N/A   Clear
8:55 AM 74.7 °F - 70.0 °F 85% 30.05 in 10.0 mi SW 6.9 mph - N/A   Clear
9:15 AM 74.7 °F - 69.6 °F 84% 30.06 in 10.0 mi SW 6.9 mph - N/A   Scattered Clouds
9:35 AM 74.3 °F - 69.3 °F 84% 30.06 in 7.0 mi WSW 8.1 mph - N/A   Drizzle
9:55 AM 73.8 °F - 69.8 °F 87% 30.08 in 7.0 mi West 10.4 mph - N/A Rain Light Rain
10:15 AM 73.8 °F - 69.6 °F 87% 30.08 in 10.0 mi WSW 6.9 mph - N/A   Light Drizzle
10:35 AM 74.3 °F - 69.3 °F 84% 30.08 in 10.0 mi WSW 5.8 mph - N/A Rain Light Rain
10:55 AM 74.5 °F - 69.3 °F 84% 30.08 in 10.0 mi WSW 8.1 mph - N/A   Scattered Clouds
11:15 AM 73.8 °F - 68.9 °F 85% 30.09 in 10.0 mi West 8.1 mph - N/A Rain Light Rain
11:35 AM 72.5 °F - 69.8 °F 91% 30.09 in 5.0 mi West 8.1 mph - 0.04 in Rain Rain
11:55 AM 71.2 °F - 68.5 °F 91% 30.09 in 5.0 mi WSW 12.7 mph 17.3 mph 0.07 in Rain Heavy Rain
12:15 PM 69.6 °F - 68.0 °F 95% 30.08 in 4.0 mi SW 13.8 mph 17.3 mph 0.05 in Rain Rain
12:35 PM 69.1 °F - 67.3 °F 94% 30.06 in 5.0 mi SW 15.0 mph 23.0 mph 0.07 in Rain Light Rain
12:55 PM 68.0 °F - 65.3 °F 91% 30.06 in 5.0 mi SSW 9.2 mph - 0.09 in Rain Rain
1:15 PM 68.0 °F - 65.3 °F 91% 30.04 in 10.0 mi SSW 9.2 mph - 0.01 in Rain Light Rain
1:35 PM 68.0 °F - 66.2 °F 94% 30.03 in 7.0 mi SSW 10.4 mph 17.3 mph 0.02 in Rain , Thunderstorm Light Thunderstorms and Rain
1:55 PM 68.7 °F - 67.5 °F 96% 30.02 in 7.0 mi South 9.2 mph - 0.02 in Rain Light Rain
2:15 PM 69.3 °F - 68.0 °F 96% 30.02 in 10.0 mi South 5.8 mph - N/A Rain Light Rain
2:35 PM 71.1 °F - 69.3 °F 94% 30.01 in 10.0 mi SSW 5.8 mph - 0.01 in   Scattered Clouds
2:55 PM 74.5 °F - 69.8 °F 85% 30.00 in 10.0 mi South 5.8 mph - 0.01 in   Scattered Clouds
3:15 PM 76.5 °F - 68.4 °F 76% 30.00 in 10.0 mi SSW 10.4 mph 16.1 mph N/A   Scattered Clouds
3:35 PM 78.6 °F - 70.0 °F 75% 29.99 in 10.0 mi SSW 12.7 mph 18.4 mph N/A   Scattered Clouds
3:55 PM 80.2 °F 83.7 °F 70.9 °F 73% 29.99 in 10.0 mi SW 17.3 mph 23.0 mph N/A   Clear
4:15 PM 80.1 °F 83.7 °F 71.4 °F 75% 29.99 in 10.0 mi SSW 12.7 mph 18.4 mph N/A   Clear
4:35 PM 80.2 °F 84.2 °F 72.0 °F 76% 29.99 in 10.0 mi SW 10.4 mph 18.4 mph N/A   Scattered Clouds
4:55 PM 81.7 °F 86.5 °F 72.1 °F 73% 29.99 in 10.0 mi SW 12.7 mph 18.4 mph N/A   Scattered Clouds
5:15 PM 80.6 °F 84.4 °F 71.2 °F 73% 29.99 in 10.0 mi WSW 12.7 mph - N/A   Scattered Clouds
5:35 PM 80.8 °F 84.2 °F 70.2 °F 70% 29.99 in 10.0 mi SW 11.5 mph 18.4 mph N/A   Mostly Cloudy
5:55 PM 80.8 °F 84.2 °F 70.0 °F 70% 29.98 in 10.0 mi SW 9.2 mph 18.4 mph N/A   Mostly Cloudy
6:15 PM 80.8 °F 84.2 °F 70.3 °F 70% 29.98 in 10.0 mi WSW 8.1 mph - N/A   Mostly Cloudy
6:35 PM 81.0 °F 84.7 °F 70.9 °F 71% 29.98 in 10.0 mi SW 8.1 mph - N/A   Mostly Cloudy
6:55 PM 80.4 °F 83.9 °F 70.7 °F 72% 29.98 in 10.0 mi SW 11.5 mph 16.1 mph N/A   Scattered Clouds
7:15 PM 79.2 °F - 71.1 °F 76% 29.98 in 10.0 mi SW 8.1 mph - N/A   Scattered Clouds
7:35 PM 79.2 °F - 70.9 °F 76% 29.99 in 10.0 mi SW 6.9 mph - N/A   Mostly Cloudy
7:55 PM 78.8 °F - 70.9 °F 77% 29.99 in 10.0 mi WSW 6.9 mph - N/A   Overcast
8:15 PM 77.4 °F - 72.5 °F 85% 30.00 in 10.0 mi WSW 4.6 mph - 0.10 in Rain Light Rain
8:35 PM 76.5 °F - 72.3 °F 87% 29.99 in 10.0 mi WSW 3.5 mph - 0.10 in   Light Drizzle
8:55 PM 75.4 °F - 72.0 °F 89% 29.99 in 10.0 mi Calm Calm - 0.10 in   Scattered Clouds
9:15 PM 74.8 °F - 72.5 °F 92% 30.00 in 10.0 mi SW 3.5 mph - N/A   Scattered Clouds
9:35 PM 74.8 °F - 70.2 °F 85% 30.00 in 10.0 mi SW 5.8 mph - N/A   Scattered Clouds
9:55 PM 75.0 °F - 69.3 °F 82% 30.01 in 10.0 mi WSW 8.1 mph - N/A   Clear
10:15 PM 75.0 °F - 69.1 °F 82% 30.01 in 10.0 mi WSW 6.9 mph - N/A Thunderstorm Clear
10:35 PM 75.2 °F - 69.4 °F 82% 30.01 in 10.0 mi SW 6.9 mph - N/A   Clear
10:55 PM 74.8 °F - 69.8 °F 84% 30.02 in 10.0 mi West 4.6 mph - N/A Thunderstorm Scattered Clouds
11:15 PM 74.3 °F - 70.0 °F 86% 30.02 in 10.0 mi SW 3.5 mph - N/A   Scattered Clouds
11:35 PM 73.4 °F - 70.2 °F 90% 30.02 in 10.0 mi WSW 3.5 mph - N/A   Clear
11:55 PM 72.5 °F - 70.3 °F 93% 30.02 in 10.0 mi Calm Calm - N/A   Clear